| time (UTC) | temp C | wind direction | speed KPH | gust KPH | rain 1hr cm | rain 24hr cm | rain mn cm | humidity % | barometer mb |
| 20260502220026 | 17 | 233 | 11.3 | 0.0 | 0.00 | 0.00 | 0.00 | 39 | 1010.6 |
| 20260502214529 | 17 | 265 | 11.3 | 0.0 | 0.00 | 0.00 | 0.00 | 33 | 1010.5 |
| 20260502213022 | 18 | 292 | 11.3 | 0.0 | 0.00 | 0.00 | 0.00 | 36 | 1010.5 |
| 20260502211529 | 18 | 239 | 11.3 | 0.0 | 0.00 | 0.00 | 0.00 | 36 | 1010.6 |
| 20260502210020 | 18 | 274 | 11.3 | 0.0 | 0.00 | 0.00 | 0.00 | 35 | 1010.7 |
| 20260502204519 | 18 | 187 | 9.7 | 0.0 | 0.00 | 0.00 | 0.00 | 33 | 1010.7 |
| 20260502203017 | 18 | 244 | 9.7 | 0.0 | 0.00 | 0.00 | 0.00 | 35 | 1011.0 |
| 20260502201516 | 18 | 267 | 9.7 | 0.0 | 0.00 | 0.00 | 0.00 | 36 | 1011.2 |
| 20260502200014 | 18 | 282 | 11.3 | 0.0 | 0.00 | 0.00 | 0.00 | 33 | 1011.5 |
| 20260502194511 | 18 | 284 | 9.7 | 0.0 | 0.00 | 0.00 | 0.00 | 36 | 1011.9 |
| 20260502193009 | 18 | 263 | 9.7 | 0.0 | 0.00 | 0.00 | 0.00 | 36 | 1012.0 |
| 20260502191514 | 18 | 234 | 11.3 | 0.0 | 0.00 | 0.00 | 0.00 | 36 | 1012.4 |
| 20260502190002 | 17 | 281 | 11.3 | 0.0 | 0.00 | 0.00 | 0.00 | 37 | 1012.7 |
| 20260502184604 | 16 | 264 | 9.7 | 0.0 | 0.00 | 0.00 | 0.00 | 38 | 1013.1 |
| 20260502183103 | 16 | 267 | 11.3 | 0.0 | 0.00 | 0.00 | 0.00 | 41 | 1013.4 |
| 20260502181557 | 17 | 246 | 9.7 | 0.0 | 0.00 | 0.00 | 0.00 | 41 | 1013.5 |
| 20260502180119 | 17 | 205 | 11.3 | 0.0 | 0.00 | 0.00 | 0.00 | 39 | 1013.9 |
| 20260502163036 | 14 | 252 | 11.3 | 0.0 | 0.00 | 0.00 | 0.00 | 42 | 1015.3 |
| 20260502161533 | 14 | 196 | 11.3 | 0.0 | 0.00 | 0.00 | 0.00 | 43 | 1015.6 |
| 20260502151521 | 12 | 247 | 8.0 | 0.0 | 0.00 | 0.00 | 0.00 | 47 | 1016.6 |
| 20260502123039 | 4 | 229 | 3.2 | 0.0 | 0.00 | 0.00 | 0.00 | 69 | 1018.3 |
| 20260502121538 | 3 | 234 | 1.6 | 0.0 | 0.00 | 0.00 | 0.00 | 72 | 1018.4 |
| 20260502114538 | 2 | 271 | 0.0 | 0.0 | 0.00 | 0.00 | 0.00 | 75 | 1018.5 |
| 20260502113036 | 0 | 271 | 0.0 | 0.0 | 0.00 | 0.00 | 0.00 | 75 | 1018.4 |
| 20260502111536 | 0 | 271 | 0.0 | 0.0 | 0.00 | 0.00 | 0.00 | 75 | 1018.5 |
| 20260502110034 | 0 | 271 | 0.0 | 0.0 | 0.00 | 0.00 | 0.00 | 75 | 1018.6 |
| 20260502104541 | 0 | 271 | 0.0 | 0.0 | 0.00 | 0.00 | 0.00 | 75 | 1018.5 |
| 20260502103039 | 0 | 271 | 0.0 | 0.0 | 0.00 | 0.00 | 0.00 | 75 | 1018.7 |
| 20260502101538 | 0 | 271 | 0.0 | 0.0 | 0.00 | 0.00 | 0.00 | 75 | 1018.7 |
| 20260502091524 | 1 | 271 | 0.0 | 0.0 | 0.00 | 0.00 | 0.00 | 75 | 1018.8 |
| 20260502071511 | 3 | 271 | 0.0 | 0.0 | 0.00 | 0.00 | 0.00 | 68 | 1019.0 |
| 20260502070014 | 4 | 271 | 0.0 | 0.0 | 0.00 | 0.00 | 0.00 | 65 | 1019.1 |
| 20260502064515 | 4 | 271 | 0.0 | 0.0 | 0.00 | 0.00 | 0.00 | 65 | 1019.1 |
| 20260502063009 | 4 | 271 | 0.0 | 0.0 | 0.00 | 0.00 | 0.00 | 66 | 1019.2 |
| 20260502061505 | 4 | 271 | 0.0 | 0.0 | 0.00 | 0.00 | 0.00 | 64 | 1019.2 |
| 20260502060008 | 4 | 271 | 0.0 | 0.0 | 0.00 | 0.00 | 0.00 | 65 | 1019.3 |
| 20260502054502 | 5 | 271 | 0.0 | 0.0 | 0.00 | 0.00 | 0.00 | 62 | 1019.2 |
| 20260502053002 | 4 | 271 | 0.0 | 0.0 | 0.00 | 0.00 | 0.00 | 62 | 1019.2 |
| 20260502051604 | 4 | 271 | 0.0 | 0.0 | 0.00 | 0.00 | 0.00 | 62 | 1019.2 |
| 20260502050101 | 5 | 271 | 0.0 | 0.0 | 0.00 | 0.00 | 0.00 | 62 | 1019.2 |
| 20260502044558 | 5 | 271 | 0.0 | 0.0 | 0.00 | 0.00 | 0.00 | 61 | 1019.3 |
| 20260502043114 | 5 | 271 | 1.6 | 0.0 | 0.00 | 0.00 | 0.00 | 61 | 1019.3 |
| 20260502041557 | 5 | 271 | 0.0 | 0.0 | 0.00 | 0.00 | 0.00 | 60 | 1019.3 |
| 20260502040057 | 6 | 271 | 0.0 | 0.0 | 0.00 | 0.00 | 0.00 | 60 | 1019.3 |
| 20260502034557 | 6 | 271 | 0.0 | 0.0 | 0.00 | 0.00 | 0.00 | 58 | 1019.4 |
| 20260502033057 | 6 | 268 | 0.0 | 0.0 | 0.00 | 0.00 | 0.00 | 56 | 1019.4 |
| 20260502031557 | 7 | 255 | 0.0 | 0.0 | 0.00 | 0.00 | 0.00 | 55 | 1019.3 |
| 20260502030055 | 7 | 269 | 3.2 | 0.0 | 0.00 | 0.00 | 0.00 | 53 | 1019.3 |
| 20260502024554 | 8 | 276 | 3.2 | 0.0 | 0.00 | 0.00 | 0.00 | 52 | 1019.2 |
| 20260502023057 | 8 | 273 | 6.4 | 0.0 | 0.00 | 0.00 | 0.00 | 52 | 1019.1 |
| 20260502021554 | 8 | 275 | 4.8 | 0.0 | 0.00 | 0.00 | 0.00 | 50 | 1019.1 |
| 20260502020053 | 9 | 276 | 4.8 | 0.0 | 0.00 | 0.00 | 0.00 | 46 | 1019.0 |
| 20260502014557 | 9 | 281 | 4.8 | 0.0 | 0.00 | 0.00 | 0.00 | 47 | 1018.9 |
| 20260502013057 | 10 | 290 | 6.4 | 0.0 | 0.00 | 0.00 | 0.00 | 45 | 1018.8 |
| 20260502011608 | 10 | 278 | 4.8 | 0.0 | 0.00 | 0.00 | 0.00 | 43 | 1018.7 |
| 20260502010051 | 11 | 292 | 4.8 | 0.0 | 0.00 | 0.00 | 0.00 | 42 | 1018.6 |
| 20260502004601 | 11 | 292 | 1.6 | 0.0 | 0.00 | 0.00 | 0.00 | 41 | 1018.5 |
| 20260502003050 | 11 | 270 | 3.2 | 0.0 | 0.00 | 0.00 | 0.00 | 41 | 1018.5 |
| 20260502001550 | 11 | 269 | 4.8 | 0.0 | 0.00 | 0.00 | 0.00 | 39 | 1018.4 |
| 20260502000107 | 12 | 260 | 4.8 | 0.0 | 0.00 | 0.00 | 0.00 | 41 | 1018.4 |
| 20260501234549 | 12 | 267 | 4.8 | 0.0 | 0.00 | 0.00 | 0.00 | 37 | 1018.6 |
| 20260501233049 | 12 | 232 | 3.2 | 0.0 | 0.00 | 0.00 | 0.00 | 35 | 1018.6 |
| 20260501231552 | 11 | 333 | 4.8 | 0.0 | 0.00 | 0.00 | 0.00 | 40 | 1018.5 |
| 20260501230047 | 11 | 314 | 3.2 | 0.0 | 0.00 | 0.00 | 0.00 | 41 | 1018.6 |
| 20260501224554 | 11 | 16 | 4.8 | 0.0 | 0.00 | 0.00 | 0.00 | 41 | 1018.7 |
| 20260501223046 | 11 | 344 | 6.4 | 0.0 | 0.00 | 0.00 | 0.00 | 36 | 1018.8 |
| 20260501221605 | 11 | 360 | 6.4 | 0.0 | 0.00 | 0.00 | 0.00 | 36 | 1018.7 |